053  
NZUS99 KDVN 162210  
HRRRRR  
HOURLY WEATHER ROUNDUP  
NATIONAL WEATHER SERVICE QUAD CITIES IA IL  
500 PM CDT MON SEP 16 2019  
 
NOTE: "FAIR" INDICATES FEW OR NO CLOUDS BELOW 12,000 FEET WITH  
NO SIGNIFICANT WEATHER AND/OR OBSTRUCTIONS TO VISIBILITY.  
------------------------------------------------------------------  
 
CITY SKY/WX TMP DP RH WIND PRES REMARKS  
BURLINGTON SUNNY 86 66 51 E7 30.06S HX 88  
CEDAR RAPIDS FAIR 81 67 62 SE10 30.06F HX 83  
DAVENPORT FAIR 82 63 52 E7 30.09F HX 83  
DUBUQUE FAIR 79 68 69 S6 30.10F HX 81  
IOWA CITY FAIR 84 63 49 SE9 30.07F HX 85  
MOLINE FAIR 84 68 58 E8 30.07F HX 87  
------------------------------------------------------------------  
THE STATIONS BELOW ARE NOT NWS STATIONS AND ARE NOT SUBJECT TO NWS  
QUALITY CONTROL. SOME STATIONS DO NOT REPORT WEATHER SUCH AS FOG.  
* - STATIONS THAT REPORT TMP AND DP IN WHOLE DEGREES CELSIUS, WHICH  
ARE THEN CONVERTED TO FAHRENHEIT.  
------------------------------------------------------------------  
 
CITY SKY/WX TMP DP RH WIND PRES REMARKS  
CLINTON FAIR 81 68 64 SE7 30.09S HX 84  
FAIRFIELD * MOSUNNY 86 75 70 SE8 30.05S HX 95  
FORT MADISON * MOSUNNY 84 75 74 E5 30.06F HX 92  
FREEPORT FAIR 78 65 66 SE3 30.12S  
INDEPENDENCE FAIR 82 66 58 SE8 30.06F HX 83  
KEOKUK * MOSUNNY 86 77 74 E7 30.04F HX 97  
MACOMB SUNNY 83 71 66 NE8 30.08S HX 87  
MONTICELLO * FAIR 82 68 61 SE9 30.07S HX 85  
MT PLEASANT * NOT AVBL  
MUSCATINE * FAIR 84 66 54 E8 30.07R HX 86  
SAVANNA * FAIR 82 64 54 SE6 30.08F HX 84  
STERLING/R.F. FAIR 80 69 69 E7 30.10S HX 83  
VINTON FAIR 84 66 53 SE10 30.05F HX 86  
WASHINGTON * N/A N/A N/A N/A MISG N/A  
------------------------------------------------------------------  
 
 
CLICK HERE TO GO TO PREVIOUS BULLETINS.

The Nexlab IL Page
The Nexlab IA Page
The Nexlab MO Page Main Text Page